RH
70 65 62 62 61 58 51 41 34 32 27 19 16 16 16 16 17 19 19 19 19 20 21 21 19 18 18 19 20 21 21 21 21 21 21 20 19 17 19 21 20 20 21 22 24 23 23 23 20 18 15 12 12 16 21 24 25 25 25 26 26 25 26 26 25 25 26 28 29 28 28 27 26 26 26 30 35 39 45 52 55 57 60 61 61
68 64 61 60 56 49 41 35 32 29 24 18 17 17 16 17 19 20 20 21 21 21 22 22 22 21 21 20 20 21 21 21 21 21 22 22 21 20 22 22 21 20 20 21 23 22 22 22 21 18 14 11 10 12 16 22 26 25 25 26 27 27 27 26 25 26 26 28 28 28 28 27 26 26 24 25 29 33 37 44 52 56 57 58 60
63 60 58 56 49 42 36 31 29 27 23 19 18 17 16 18 19 19 20 21 21 22 22 23 24 25 25 25 24 23 21 21 21 22 23 23 22 22 24 24 24 23 22 23 23 23 24 24 22 19 13 11 11 11 14 21 25 25 25 26 26 27 28 28 27 27 27 27 28 28 28 27 26 26 25 24 24 26 28 33 44 54 58 57 58
57 57 55 50 43 38 33 29 28 27 23 19 18 17 17 18 19 19 20 21 21 21 22 24 26 27 27 27 26 25 24 22 22 22 23 24 24 24 24 25 26 25 26 26 26 26 26 25 23 20 15 12 12 12 15 23 26 25 25 25 24 24 26 28 29 29 29 28 28 28 26 27 26 26 25 24 21 21 21 23 31 44 55 58 57
53 52 50 44 40 35 30 27 27 25 21 19 18 17 17 18 19 19 20 21 21 22 23 25 27 28 29 29 28 28 27 26 24 22 23 24 25 26 25 25 26 27 27 28 27 28 28 26 24 21 17 13 14 16 19 25 28 27 26 26 24 22 22 22 24 25 27 28 28 28 26 25 25 24 24 23 21 19 19 19 22 28 40 51 55
50 47 44 41 38 33 27 25 24 22 20 19 19 18 18 18 19 19 20 21 21 23 25 26 28 30 30 30 30 30 29 29 27 24 23 24 25 27 27 26 26 27 28 29 28 28 28 28 25 22 19 15 15 20 22 25 28 28 27 27 26 24 21 20 20 19 21 23 24 25 25 24 23 24 23 23 22 21 19 18 17 16 22 34 45
47 44 42 39 36 30 25 23 21 20 19 19 19 19 19 19 19 19 20 20 23 25 26 27 29 30 31 31 31 31 31 31 29 27 25 25 25 27 29 28 28 28 29 29 29 29 29 29 26 23 21 17 16 21 25 25 26 28 29 28 26 24 22 20 19 18 17 18 19 21 23 23 23 23 22 22 21 20 18 16 14 12 12 18 28
46 44 41 37 33 28 24 22 20 19 19 19 19 19 19 19 19 20 20 21 23 25 26 27 30 31 31 32 33 33 32 32 31 30 29 27 26 27 29 30 30 29 29 29 30 30 30 30 28 24 21 18 17 22 28 28 27 28 30 31 28 25 22 19 18 18 17 16 16 18 21 21 22 21 20 20 19 19 20 19 19 17 13 13 17
47 43 38 34 31 26 22 20 20 19 19 19 19 19 19 20 20 21 21 22 24 25 25 27 30 31 32 33 34 34 34 34 34 33 33 32 30 29 29 31 32 32 30 29 30 31 30 31 30 25 21 17 18 24 29 30 30 30 31 32 28 24 22 20 19 19 19 17 16 19 23 23 22 22 21 22 22 23 24 23 23 23 18 16 20
47 40 34 31 27 22 19 17 18 18 19 19 19 20 20 20 20 21 22 23 24 25 26 29 31 34 35 35 36 36 36 37 37 35 35 35 34 31 30 30 32 33 33 31 30 31 31 32 31 27 22 17 16 23 29 31 32 34 34 32 28 24 22 21 20 21 22 21 21 23 25 25 25 24 24 25 24 25 25 24 26 26 21 20 24
44 37 33 30 24 19 17 17 17 17 18 20 19 19 20 20 20 22 22 24 26 28 30 33 34 36 37 37 38 38 39 40 39 37 37 38 37 35 32 30 30 31 31 31 31 30 30 32 31 27 23 18 13 19 29 33 34 35 34 30 27 24 23 22 21 22 22 22 23 24 24 25 26 25 25 25 24 24 25 26 28 29 27 25 25
41 35 34 30 24 21 18 17 18 18 18 20 20 20 20 21 21 22 23 25 29 32 34 35 36 37 37 38 39 40 41 42 41 39 40 40 41 40 36 32 30 29 29 29 29 29 29 31 30 26 23 19 14 15 25 33 36 35 32 29 27 25 23 21 21 22 22 22 23 22 23 24 25 25 25 25 24 23 24 25 28 30 30 29 28
38 35 34 29 25 23 20 18 19 19 18 20 20 20 21 21 21 23 24 26 29 33 35 35 36 36 37 38 39 41 42 42 41 41 41 41 41 41 38 34 30 28 27 27 27 28 29 31 30 26 24 21 16 15 21 30 35 35 32 29 27 25 23 21 21 23 23 22 22 22 23 24 24 25 26 26 25 23 22 24 27 30 30 30 29
37 37 36 31 26 23 21 20 19 19 19 19 19 20 21 22 22 23 25 26 29 32 34 33 34 36 38 38 39 41 42 42 41 43 42 40 39 38 37 35 30 28 27 26 26 27 29 31 30 27 25 24 19 17 20 26 31 32 30 28 26 25 23 21 22 23 22 23 22 22 23 23 24 25 26 26 25 24 22 22 25 29 30 30 30
38 38 37 34 28 23 22 21 19 18 19 19 19 21 21 22 22 23 25 27 30 32 33 33 34 37 39 39 40 41 42 42 42 43 43 40 38 37 37 34 30 27 26 25 26 27 29 31 32 29 27 26 23 22 24 27 30 30 29 27 27 26 24 22 22 23 23 23 22 21 21 22 22 23 24 24 23 23 22 21 22 28 31 30 29
39 39 39 36 32 27 23 21 20 18 17 19 20 21 21 22 22 23 25 28 31 32 33 33 34 37 39 40 41 42 42 41 42 42 41 38 37 36 36 33 28 25 24 24 26 29 30 33 35 31 28 28 27 26 27 30 32 30 28 26 26 26 24 22 22 23 23 23 23 21 21 21 21 21 21 22 22 22 22 20 21 27 30 29 28
44 41 40 37 34 30 24 21 20 18 16 18 20 20 21 21 22 24 27 30 32 33 34 34 35 38 40 41 42 42 41 41 41 39 37 34 35 35 35 31 26 23 23 24 28 31 32 34 36 34 30 30 31 30 31 33 33 31 28 26 25 25 24 22 22 22 23 23 24 23 22 21 21 21 20 21 21 21 21 20 20 24 28 29 28
48 43 41 39 36 32 25 22 21 18 16 18 19 20 21 21 23 26 29 31 33 32 32 33 36 39 40 41 42 41 40 40 39 37 34 32 33 34 32 28 25 24 25 26 29 32 33 34 37 37 34 32 33 34 35 36 36 34 31 29 27 25 23 22 21 21 21 21 21 20 20 20 21 22 21 21 21 20 20 19 17 21 28 32 31
45 42 42 40 39 33 25 22 22 20 18 19 19 20 22 22 24 28 29 31 34 34 34 35 36 38 40 41 43 41 39 38 36 35 33 32 32 32 29 26 25 27 29 30 32 33 34 34 37 39 37 36 35 36 37 38 39 37 34 31 30 28 25 22 20 19 20 19 18 19 21 20 21 23 23 22 21 20 19 18 17 20 28 33 32
43 42 43 42 39 33 25 22 22 21 21 22 21 22 23 24 25 27 29 32 35 35 35 36 36 37 39 41 42 41 38 36 35 35 34 33 31 29 27 26 28 31 32 34 35 36 35 34 36 38 39 38 37 37 38 39 41 41 38 34 31 30 28 25 22 21 21 20 19 21 22 21 22 23 23 23 23 21 19 20 20 22 27 31 30
44 43 43 42 38 30 24 23 23 22 22 22 23 24 24 24 25 27 30 34 35 34 35 35 36 36 38 38 39 39 37 36 37 37 35 31 29 28 28 28 31 33 34 36 38 38 37 35 35 37 39 39 39 38 38 40 42 44 42 38 35 32 30 27 25 23 22 21 20 21 22 21 21 22 21 22 24 23 22 24 24 24 27 29 28
45 45 43 40 35 27 23 23 24 23 23 22 22 23 24 24 27 30 33 35 35 35 35 35 34 34 35 35 36 37 37 37 39 39 35 32 31 31 31 31 34 36 36 37 39 40 39 38 37 38 40 42 42 41 39 40 42 45 45 42 38 35 31 28 27 25 24 23 21 21 21 21 21 21 20 21 23 24 25 26 25 25 27 27 26
46 44 42 38 31 25 23 24 24 24 25 24 23 23 25 28 30 32 34 35 35 35 35 33 33 33 33 34 35 37 39 41 41 40 38 36 35 36 35 35 37 38 39 40 40 40 41 41 40 40 41 43 45 45 43 42 43 45 46 42 39 36 33 30 27 26 26 25 23 22 22 22 21 20 19 20 21 24 25 26 25 25 25 26 26
45 44 41 35 27 24 24 24 24 25 25 24 23 25 27 31 32 33 33 33 33 33 32 31 32 34 36 37 38 40 42 44 44 43 42 41 40 40 39 39 39 40 42 42 42 42 41 42 43 43 43 43 45 46 47 47 46 46 45 43 40 38 36 32 29 27 27 26 25 24 23 23 22 21 20 20 21 23 25 25 25 25 25 26 26
44 43 38 30 25 25 26 25 25 26 26 25 25 27 28 31 32 32 31 31 31 32 32 31 34 37 40 42 43 45 47 47 47 47 47 47 47 45 44 43 42 43 45 44 44 45 45 45 44 44 44 44 45 46 49 51 50 48 46 45 42 39 37 35 32 29 28 28 28 27 26 25 23 21 21 21 20 21 23 24 24 25 27 28 28
43 41 34 27 24 26 26 26 26 27 28 29 30 30 31 32 33 33 32 31 32 33 33 34 36 40 43 45 47 49 49 49 49 51 52 53 53 52 51 49 47 47 48 47 47 47 48 48 46 45 45 45 46 47 49 52 53 50 49 47 45 42 38 36 34 32 30 30 29 29 28 27 25 23 22 22 21 20 22 24 23 24 26 29 29
42 37 29 25 25 26 26 27 28 28 28 29 30 31 32 33 33 33 32 32 32 34 34 36 39 42 44 46 47 48 48 47 49 51 54 56 57 58 58 57 54 53 53 52 51 50 50 50 49 48 46 46 47 49 51 53 53 53 50 49 47 45 42 38 36 34 32 31 30 28 28 27 26 24 23 22 22 22 22 23 22 22 23 25 26
36 30 26 25 25 24 24 26 27 27 26 26 27 29 32 33 33 32 32 33 34 35 37 39 41 44 46 48 49 48 47 46 48 50 53 56 58 59 60 60 58 56 55 55 54 53 51 51 52 52 50 48 48 51 54 55 55 55 53 50 48 47 45 41 38 35 32 32 31 30 28 27 27 26 24 22 23 24 23 23 22 21 20 21 23
28 25 25 25 25 23 23 24 25 25 25 25 26 29 33 35 35 35 35 36 37 39 40 42 44 47 50 51 52 52 50 49 49 50 51 53 55 57 59 59 58 56 55 55 55 54 53 53 54 54 54 51 50 52 54 56 57 57 55 53 50 48 46 44 41 36 33 32 33 32 31 29 28 28 27 25 23 23 24 24 22 20 18 18 21
24 24 25 25 25 24 22 22 23 24 24 25 28 31 35 36 37 38 37 37 39 40 41 43 46 50 51 51 52 53 52 52 52 52 52 53 54 55 56 57 57 57 56 56 55 55 55 55 55 56 56 55 52 52 54 56 58 58 58 55 51 48 47 47 44 39 35 33 34 35 33 32 31 30 30 28 25 24 26 24 21 19 19 21 21
24 24 24 24 24 22 21 22 23 24 25 27 30 34 37 38 39 39 39 38 39 40 42 45 48 51 51 51 51 51 51 51 53 54 54 55 56 56 56 56 56 57 56 56 55 55 56 56 56 57 57 57 55 54 54 56 57 58 58 58 53 49 47 48 47 43 37 34 34 35 35 34 33 31 30 30 28 27 27 25 21 21 24 25 22
24 23 23 23 22 21 21 23 24 25 27 29 32 36 39 40 40 39 38 38 40 42 44 47 49 51 51 52 52 52 51 50 52 54 54 56 56 56 56 56 58 58 59 58 57 57 57 57 57 57 58 58 57 55 54 55 57 58 59 58 55 50 47 48 49 46 41 36 35 35 36 36 34 33 31 31 31 31 29 26 22 22 24 25 23
21 20 21 20 20 21 22 23 24 26 28 30 33 37 40 41 41 39 39 40 42 43 45 48 49 50 51 51 52 52 51 51 53 54 54 56 56 56 56 55 57 59 60 60 59 60 59 59 58 57 57 58 57 55 54 55 56 58 59 59 57 52 47 47 49 48 44 39 36 35 36 37 36 34 32 31 32 32 31 29 24 21 21 23 23
18 19 19 19 20 22 24 25 26 28 31 33 35 37 40 41 41 41 41 42 43 44 45 47 48 49 49 50 50 51 52 53 54 55 56 57 58 57 57 57 57 58 60 61 61 61 61 61 60 59 58 57 57 56 55 54 56 57 59 60 59 55 50 47 48 49 47 43 39 36 35 37 36 35 34 33 32 32 32 31 27 22 20 21 21
16 18 18 19 22 24 26 27 30 32 34 35 36 36 39 41 42 43 43 44 44 43 43 45 48 49 49 49 50 52 54 55 56 58 59 59 59 58 57 57 58 59 60 62 63 63 63 62 61 60 59 57 56 56 56 56 56 57 58 60 62 61 57 51 49 49 48 46 42 37 35 36 37 36 35 33 32 32 32 31 29 25 21 20 20
16 17 19 20 22 25 26 28 30 33 34 36 37 38 40 42 43 43 43 43 43 43 44 47 49 50 51 51 52 53 55 55 57 58 59 59 58 58 57 57 57 58 60 62 64 65 64 63 62 61 60 57 56 56 57 58 58 57 57 59 62 64 63 59 54 51 50 48 45 41 36 35 36 37 36 34 32 31 30 30 30 28 24 21 20
16 18 19 20 22 24 26 27 30 32 34 36 37 39 39 40 40 41 41 41 42 44 47 49 51 52 53 53 53 53 53 54 55 57 58 58 58 59 59 59 59 58 60 62 64 65 66 64 63 61 59 58 57 56 57 58 59 57 56 58 61 64 66 65 61 57 54 51 48 45 39 35 34 35 36 35 33 30 30 29 29 29 26 23 22
17 18 20 21 22 24 26 27 29 32 34 36 37 38 38 39 40 40 40 41 43 45 47 49 50 51 52 52 52 52 52 52 53 55 56 57 57 58 60 60 60 61 62 63 64 66 66 66 65 63 61 58 57 57 58 59 59 58 57 57 60 63 65 67 66 63 60 55 52 48 44 38 35 34 35 36 34 31 30 28 29 29 29 27 25
19 21 21 22 23 25 27 29 30 32 35 38 39 39 40 40 40 40 40 40 42 44 45 47 48 50 51 51 51 51 51 52 54 55 55 56 56 57 58 59 60 61 62 63 64 65 67 68 68 66 64 62 59 57 57 59 60 60 59 58 59 61 64 66 67 68 67 62 57 54 50 44 38 35 34 35 34 32 31 29 28 28 28 28 26
20 21 22 23 24 25 27 29 31 33 36 37 38 38 38 38 38 38 39 40 43 45 46 48 49 50 51 52 52 52 52 53 54 55 56 56 57 56 57 57 58 59 60 61 62 63 65 68 69 68 67 66 64 61 60 59 60 61 61 60 60 61 63 64 66 68 70 69 65 60 56 50 44 39 35 33 33 32 32 31 29 29 28 27 26
21 22 23 25 26 26 27 29 31 33 36 37 37 36 36 36 37 39 41 43 45 46 48 49 50 51 53 54 55 55 54 54 56 57 57 57 57 56 56 56 56 57 58 59 60 61 61 63 66 68 68 68 68 67 64 61 60 60 61 62 61 61 62 63 64 65 68 70 68 65 62 57 52 45 39 33 31 31 32 32 31 30 30 28 26
24 25 26 27 28 28 29 30 32 35 37 37 37 36 36 37 39 41 42 44 46 47 49 50 52 53 55 57 58 59 58 57 57 58 58 58 58 57 56 56 56 56 57 58 58 59 58 59 62 65 65 66 67 68 67 64 62 62 63 63 63 62 62 63 64 63 64 67 68 67 66 65 61 54 46 38 33 30 30 31 31 31 30 30 28
24 26 28 29 29 30 30 31 34 36 38 38 38 38 39 39 40 42 43 44 46 48 49 50 52 54 56 57 59 60 59 58 60 62 61 60 60 61 60 59 57 57 57 57 57 57 56 56 58 60 61 62 64 66 67 66 65 65 65 66 66 64 64 64 65 65 64 64 66 67 68 69 69 65 57 48 39 32 30 29 30 30 30 30 30
25 26 28 29 30 31 31 32 34 36 38 39 40 40 39 40 40 42 44 45 46 48 49 51 53 54 55 57 58 59 58 60 66 69 69 68 68 68 67 66 64 62 60 58 57 57 56 54 55 57 58 60 62 64 65 66 66 66 67 68 68 68 67 67 68 68 68 66 66 65 67 68 71 72 68 60 49 39 32 29 28 29 29 30 30
25 26 27 28 29 30 31 33 34 36 37 38 38 39 40 41 42 43 44 45 48 51 52 54 55 56 56 57 59 59 59 60 64 67 69 71 72 72 71 71 71 69 65 63 60 58 56 55 55 56 58 60 62 64 65 66 66 66 66 67 68 69 69 69 69 70 70 69 69 68 67 67 69 72 73 70 62 51 40 33 29 28 28 29 30
27 28 28 28 29 31 32 34 35 36 38 38 39 41 42 43 44 46 47 49 51 53 55 56 58 59 61 61 61 62 62 63 63 65 69 73 76 77 76 76 75 74 73 71 69 65 61 58 57 58 59 61 63 64 66 67 67 68 68 67 68 68 69 71 71 72 71 70 70 69 68 67 67 69 72 74 71 63 51 41 35 30 27 26 27
30 31 30 31 33 34 36 37 38 39 40 40 41 42 43 45 47 49 51 52 54 55 57 60 63 65 67 67 66 67 69 71 72 73 74 75 77 79 80 80 79 79 78 77 76 74 71 66 63 61 61 62 64 65 66 68 69 70 70 70 69 69 69 70 71 73 73 73 71 70 70 69 68 67 68 71 74 72 63 52 44 37 31 27 25
32 33 34 36 38 39 40 41 41 42 43 44 44 46 48 49 52 54 55 56 58 60 63 66 67 69 71 72 73 75 78 80 81 80 79 77 77 77 79 80 81 82 82 81 79 78 78 77 73 69 66 64 65 65 66 68 70 72 72 72 72 71 71 72 72 73 75 75 74 73 72 71 70 68 67 67 71 75 73 66 55 46 39 32 27
35 36 38 40 41 41 43 43 45 46 47 48 49 52 54 57 59 60 62 63 65 68 71 73 74 75 77 78 79 81 83 84 84 83 81 79 77 78 78 80 81 83 84 84 83 81 82 82 81 79 75 72 69 67 67 68 70 72 73 73 74 75 75 75 74 75 76 77 78 77 75 73 71 69 68 66 67 70 75 75 68 57 48 41 34
37 38 40 41 43 45 46 47 48 50 52 53 55 57 59 61 63 65 66 68 71 73 76 78 79 78 78 78 79 80 81 82 82 81 81 80 80 79 79 80 82 84 84 84 85 86 87 86 85 84 82 81 77 74 71 70 71 71 71 71 73 75 77 77 77 77 77 78 79 80 79 78 75 72 69 67 65 67 70 74 74 66 56 48 42
39 40 42 44 46 48 50 51 53 54 55 56 58 58 59 62 65 67 68 72 74 75 77 79 79 79 78 78 77 78 79 80 80 81 81 81 81 80 80 80 81 82 82 83 84 85 87 87 87 88 88 87 85 83 80 77 76 75 74 72 72 73 75 76 78 79 78 78 79 80 81 80 80 77 74 70 67 66 66 70 75 73 65 57 49